Regional Weather Roundup
Issued by NWS

Home | Current Version | Previous Version | Graphics & Text | Print | Product List | Glossary On
Versions: 1 2 3 4 5 6 7 8 9 10 11 12 13 14 15 16 17 18 19 20 21 22 23 24 25 26 27 28 29 30 31 32 33 34 35 36 37 38 39 40 41 42 43 44 45 46 47 48 49 50
000
ASUS43 KIND 022259
RWRIN

WEATHER ROUNDUP FOR INDIANA
NATIONAL WEATHER SERVICE INDIANAPOLIS IN
700 PM EDT TUE JUN 02 2015

NOTE: "FAIR" INDICATES FEW OR NO CLOUDS BELOW 12,000 FEET WITH NO
SIGNIFICANT WEATHER AND/OR OBSTRUCTIONS TO VISIBILITY.

* - STATION DOES NOT REPORT WEATHER SUCH AS PRECIPITATION OR FOG.

+ - STATION NOT QUALITY CONTROLLED BY THE NATIONAL WEATHER SERVICE.
    USE DATA WITH CAUTION...ESPECIALLY DEWPOINT AND RELATIVE
    HUMIDITY OBSERVATIONS.

INZ001>003-010>013-019-020-030000-
NORTHWEST INDIANA

CITY           SKY/WX    TMP DP  RH WIND       PRES   REMARKS
GARY /AIRPORT/ MOSUNNY   63  46  55 NE10      30.11S
RENSSELAER +   SUNNY     70  50  49 E5        30.08S

$$

LMZ046-743>745-030000-
SOUTHERN LAKE MICHIGAN

STATION/POSITION TIME  TEMP    WIND        PRES    WAVE
                       AIR SEA DIR/SP/G            HT
                 (UTC) (F)     (DEG/KT/KT) (MB)    (FT)
BURNS HARBOR     2200           50/ 11/ 11 1019.6F
MICHIGAN CITY    2200   55      20/ 10/ 11   N/A
5NW MICH CITY    2200   54 56   50/  8/ 10   N/A     1

$$

INZ004-005-014>016-021>024-030000-
NORTH CENTRAL INDIANA

CITY           SKY/WX    TMP DP  RH WIND       PRES   REMARKS
ELKHART        SUNNY     72  48  43 E7        30.10S
GOSHEN         MOSUNNY   70  50  49 E7        30.10S
PERU/GRISSOM   PTSUNNY   67  53  61 E8        30.08F
SOUTH BEND     SUNNY     72  47  40 E6        30.09F

$$

INZ006>009-017-018-025>027-030000-
NORTHEAST INDIANA

CITY           SKY/WX    TMP DP  RH WIND       PRES   REMARKS
ANGOLA *+      SUNNY     68  61  77 SE7       30.11F
FORT WAYNE     PTSUNNY   67  52  58 E13       30.11S

$$

INZ028-029-035-036-043>045-051>053-030000-
WEST CENTRAL INDIANA

CITY           SKY/WX    TMP DP  RH WIND       PRES   REMARKS
CRAWFORDSVL +  SUNNY     67  48  51 E10       30.07S
GREENCASTLE +  MOSUNNY   68  50  52 E8        30.07S
LAFAYETTE      SUNNY     68  54  60 E10       30.07S
TERRE HAUTE    SUNNY     72  54  53 E3        30.05S

$$

INZ030>032-037>040-046>048-054>057-064-065-030000-
CENTRAL INDIANA

CITY           SKY/WX    TMP DP  RH WIND       PRES   REMARKS
GREENWOOD *+   CLOUDY    63  50  63 E8        30.09F
INDIANAPOLIS   MOSUNNY   65  51  60 E9        30.07S
-EAGLE CREEK   MOSUNNY   65  52  62 E8        30.08S
KOKOMO *+      PTSUNNY   66  54  63 SE8       30.09S
MT COMFORT *+  PTSUNNY   61  46  59 NE6       30.10S
SHELBYVILLE    CLOUDY    64  53  67 E6        30.08F

$$

INZ033-034-041-042-049-050-058-059-030000-
EAST CENTRAL INDIANA

CITY           SKY/WX    TMP DP  RH WIND       PRES   REMARKS
MUNCIE         CLOUDY    65  55  70 E7        30.09S

$$

INZ060-061-067>069-081>083-085>088-030000-
SOUTHWEST INDIANA

CITY           SKY/WX    TMP DP  RH WIND       PRES   REMARKS
EVANSVILLE     CLOUDY    66  56  70 NW3       30.07S
HUNTINGBURG *+ MOSUNNY   70  55  60 CALM      30.06S

$$

INZ062-063-066-070>080-084-089>092-030000-
SOUTH CENTRAL AND SOUTHEAST INDIANA

CITY           SKY/WX    TMP DP  RH WIND       PRES   REMARKS
BLOOMINGTON    MOSUNNY   71  55  56 NE9       30.06S
MADISON *+     CLOUDY    61  50  67 NE7       30.09F
SEYMOUR +      MOSUNNY   68  54  60 NE6       30.07

$$



USA.gov is the U.S. government's official web portal to all federal, state and local government web resources and services.